蒙特利尔皮埃尔·埃利奥特·特鲁多国际机场

CYUL

2022年7月2日

时间 代码 天气 温度 能见度 天花板 METAR/SPECI
7:00 下午
V
79 °F 30 mi - 230° 230° 16 - 22 kt METAR CYUL 022300Z 23016G22KT 30SM SCT070 26/13 A2979 RMK CU4 SLP089 DENSITY ALT 1600FT
6:00 下午
V
79 °F 30 mi - 230° 230° 15 - 20 kt METAR CYUL 022200Z 23015G20KT 30SM SCT070 SCT250 26/13 A2979 RMK CU4CI1 CI TR SLP090 DENSITY ALT 1600FT
5:00 下午
V
77 °F 30 mi 7.000 ft 220° 220° 15 - 22 kt METAR CYUL 022100Z 22015G22KT 30SM BKN070 BKN250 25/12 A2980 RMK CU6CI1 CI TR SLP092 DENSITY ALT 1500FT
4:00 下午
V
79 °F 30 mi - 220° 220° 16 - 22 kt METAR CYUL 022000Z 22016G22KT 30SM SCT070 SCT250 26/11 A2981 RMK CU3CI1 CI TR SLP095 DENSITY ALT 1600FT
3:00 下午
V
79 °F 30 mi - 230° 230° 16 kt METAR CYUL 021900Z 23016KT 30SM FEW070 FEW090 26/10 A2981 RMK CU1AC1 AC TR SLP096 DENSITY ALT 1600FT
2:00 下午
V
79 °F 30 mi - 270° 270° 13 - 21 kt METAR CYUL 021800Z 27013G21KT 230V300 30SM FEW070 26/10 A2981 RMK CU2 SLP097 DENSITY ALT 1600FT
1:00 下午
V
77 °F 30 mi - 260° 260° 14 - 19 kt METAR CYUL 021700Z 26014G19KT 30SM FEW050 FEW250 25/09 A2982 RMK CU1CI1 CU TR CI TR SLP100 DENSITY ALT 1500FT
12:00 下午
V
75 °F 30 mi - 270° 270° 13 - 20 kt METAR CYUL 021600Z 27013G20KT 30SM FEW055 FEW250 24/10 A2983 RMK CU1CI1 CU TR CI TR SLP103 DENSITY ALT 1400FT
11:00 上午
V
75 °F 30 mi - 290° 290° 9 - 16 kt METAR CYUL 021500Z 29009G16KT 240V310 30SM FEW045 24/13 A2982 RMK CU1 CU TR SLP100 DENSITY ALT 1300FT
10:00 上午
V
72 °F 30 mi - 250° 250° 15 kt METAR CYUL 021400Z 25015KT 30SM FEW040 FEW150 22/13 A2982 RMK CU1AC1 CU TR AC TR SLP101 DENSITY ALT 1200FT
9:00 上午
V
72 °F 30 mi - 290° 290° 11 - 17 kt METAR CYUL 021300Z 29011G17KT 30SM FEW140 FEW250 22/14 A2981 RMK AC1CI1 AC TR SLP098 DENSITY ALT 1100FT
8:00 上午
V
72 °F 30 mi - 280° 280° 12 kt METAR CYUL 021200Z 28012KT 30SM FEW160 FEW250 22/14 A2979 RMK AC1CI1 SLP091 DENSITY ALT 1100FT
7:00 上午
V
70 °F 30 mi - 260° 260° 13 kt METAR CYUL 021100Z 26013KT 30SM FEW160 FEW250 21/15 A2978 RMK AC1CI1 SLP085 DENSITY ALT 1000FT
6:00 上午
V
68 °F 30 mi - 250° 250° 9 kt METAR CYUL 021000Z 25009KT 30SM FEW160 SCT250 20/17 A2976 RMK AC2CI1 SLP079 DENSITY ALT 1000FT
5:00 上午
V
70 °F 15 mi 25.000 ft 240° 240° 10 kt METAR CYUL 020900Z 24010KT 15SM FEW050 BKN250 21/17 A2973 RMK CF2CI3 SLP071 DENSITY ALT 1100FT
4:00 上午
V
72 °F 15 mi 25.000 ft 240° 240° 10 kt METAR CYUL 020800Z 24010KT 15SM FEW050 BKN250 22/17 A2972 RMK CF1CS5 SLP066 DENSITY ALT 1200FT
3:00 上午
V
72 °F 15 mi 25.000 ft 240° 240° 9 kt METAR CYUL 020700Z 24009KT 15SM FEW060 OVC250 22/17 A2971 RMK CF1CS8 CF TR SLP063 DENSITY ALT 1300FT
2:00 上午
V
73 °F 15 mi 25.000 ft 240° 240° 11 - 17 kt METAR CYUL 020600Z 24011G17KT 15SM BKN250 23/17 A2971 RMK CC6 SLP063 DENSITY ALT 1400FT
1:00 上午
V
73 °F 15 mi 25.000 ft 210° 210° 11 kt METAR CYUL 020500Z 21011KT 15SM SCT080 BKN250 23/18 A2972 RMK AC4CI2 SLP065 DENSITY ALT 1400FT
12:00 上午
V
75 °F 15 mi 8.000 ft 210° 210° 9 kt METAR CYUL 020400Z 21009KT 15SM BKN080 BKN250 24/18 A2972 RMK AC6CI1 SLP065 DENSITY ALT 1500FT

2022年7月1日

时间 代码 天气 温度 能见度 天花板 METAR/SPECI
11:00 下午
V
77 °F 15 mi 8.000 ft 180° 180° 8 kt METAR CYUL 020300Z 18008KT 15SM FEW070TCU BKN080 BKN250 25/18 A2973 RMK TCU1AC4CI1 SLP070 DENSITY ALT 1500FT
10:00 下午
V
77 °F 15 mi 12.000 ft 210° 210° 7 kt METAR CYUL 020200Z 21007KT 15SM FEW060TCU SCT085 BKN120 BKN250 25/17 A2975 RMK TCU1AC3AC1CI2 SLP076 DENSITY ALT 1600FT
9:00 下午
V
79 °F 30 mi 9.000 ft 200° 200° 7 kt METAR CYUL 020100Z 20007KT 30SM FEW030TCU SCT075 BKN090 BKN250 26/19 A2976 RMK TCU1AC4ACC1CI1 TCU TR SLP079 DENSITY ALT 1600FT
8:00 下午
V
79 °F 30 mi 8.500 ft 200° 200° 6 kt METAR CYUL 020000Z 20006KT 170V230 30SM BKN085 OVC250 26/19 A2977 RMK ACC7CI1 SLP083 DENSITY ALT 1600FT
7:00 下午
V
79 °F 30 mi 9.500 ft 210° 210° 9 kt METAR CYUL 012300Z 21009KT 30SM BKN095 OVC250 26/18 A2977 RMK ACC7CI1 SLP083 DENSITY ALT 1700FT
6:00 下午
V
81 °F 30 mi 9.500 ft 210° 210° 9 kt METAR CYUL 012200Z CCA 21009KT 30SM FEW035TCU BKN095 BKN250 27/18 A2977 RMK TCU1ACC7CI1 TCU TR CI TR SLP083 DENSITY ALT 1700FT
5:00 下午
V
81 °F 30 mi 25.000 ft 190° 190° 8 kt METAR CYUL 012100Z 19008KT 30SM FEW035TCU SCT095 BKN250 27/18 A2977 RMK TCU1AC3CI2 TCU TR SLP084 DENSITY ALT 1700FT
4:00 下午
V
81 °F 30 mi 25.000 ft 230° 230° 7 kt METAR CYUL 012000Z 23007KT 30SM FEW100 SCT180 BKN250 27/18 A2981 RMK AC2AC1CI4 SLP095 DENSITY ALT 1700FT
3:00 下午
V
79 °F 30 mi 25.000 ft 250° 250° 9 kt METAR CYUL 011900Z 25009KT 30SM SCT085 OVC250 26/17 A2983 RMK AC5CI3 SLP102 DENSITY ALT 1600FT
2:00 下午
V
79 °F 30 mi 24.000 ft 180° 180° 8 kt METAR CYUL 011800Z 18008KT 30SM FEW090 SCT180 OVC240 26/18 A2982 RMK AC1AC4CI4 AC TR SLP099 DENSITY ALT 1500FT
1:00 下午
V
77 °F 30 mi 25.000 ft 190° 190° 10 kt METAR CYUL 011700Z 19010KT 30SM FEW090 SCT180 OVC250 25/17 A2982 RMK ACC1AC3CI5 ACC TR SLP100 DENSITY ALT 1500FT
12:00 下午
V
77 °F 30 mi 18.000 ft 240° 240° 10 kt METAR CYUL 011600Z 24010KT 30SM FEW090 BKN180 OVC250 25/17 A2988 RMK AC1AC5CI2 SLP119 DENSITY ALT 1400FT
11:00 上午
V
77 °F 30 mi 18.000 ft 270° 270° 15 - 26 kt METAR CYUL 011500Z 27015G26KT 30SM FEW095 BKN180 OVC250 25/17 A2989 RMK ACC1AC6CI1 SLP124 DENSITY ALT 1400FT
10:00 上午
V
77 °F 30 mi 18.000 ft 260° 260° 12 - 21 kt METAR CYUL 011400Z 26012G21KT 30SM FEW095 BKN180 OVC250 25/17 A2987 RMK ACC1AC7CI1 ACC TR SLP116 DENSITY ALT 1400FT
9:00 上午
V
75 °F 15 mi 16.000 ft 210° 210° 8 kt METAR CYUL 011300Z 21008KT 15SM BKN160 BKN220 24/17 A2986 RMK AC5CC2 SLP112 DENSITY ALT 1300FT
8:00 上午
V
72 °F 15 mi 18.000 ft 160° 160° 7 kt METAR CYUL 011200Z 16007KT 15SM BKN180 22/16 A2986 RMK AC7 SLP112 DENSITY ALT 1100FT
7:00 上午
V
70 °F 15 mi 17.000 ft 150° 150° 8 kt METAR CYUL 011100Z 15008KT 15SM BKN170 21/16 A2986 RMK AC7 SLP113 DENSITY ALT 900FT
6:00 上午
V
68 °F 15 mi 19.000 ft 150° 150° 5 kt METAR CYUL 011000Z 15005KT 15SM BKN190 20/15 A2987 RMK AC7 SLP118 DENSITY ALT 800FT
5:00 上午
V
66 °F 15 mi 21.000 ft 120° 120° 3 kt METAR CYUL 010900Z 12003KT 15SM SCT160 OVC210 19/15 A2988 RMK AC3CC5 SLP120 DENSITY ALT 700FT
4:00 上午
V
66 °F 15 mi 20.000 ft Var Var 2 kt METAR CYUL 010800Z VRB02KT 15SM BKN200 19/15 A2990 RMK CI7 SLP127 DENSITY ALT 700FT
3:00 上午
V
68 °F 15 mi 19.000 ft 150° 150° 6 kt METAR CYUL 010700Z 15006KT 15SM BKN190 BKN250 20/14 A2991 RMK AC5CI2 SLP131 DENSITY ALT 800FT
2:00 上午
V
68 °F 15 mi 19.000 ft 150° 150° 6 kt METAR CYUL 010600Z 15006KT 15SM FEW140 BKN190 BKN250 20/14 A2994 RMK AC1AC4CI2 SLP139 DENSITY ALT 700FT
1:00 上午
V
68 °F 15 mi 25.000 ft 150° 150° 10 kt METAR CYUL 010500Z 15010KT 15SM FEW080 SCT120 BKN250 20/13 A2995 RMK AC2AC2CI3 SLP144 DENSITY ALT 700FT
12:00 上午
V
68 °F 15 mi 14.000 ft 140° 140° 11 kt METAR CYUL 010400Z 14011KT 15SM SCT073 BKN140 OVC250 20/13 A2997 RMK AC3AC4CI1 SLP150 DENSITY ALT 700FT

2022年6月30日

时间 代码 天气 温度 能见度 天花板 METAR/SPECI
11:00 下午
V
68 °F 15 mi 17.000 ft 140° 140° 9 kt METAR CYUL 010300Z 14009KT 15SM FEW080 BKN170 OVC250 20/13 A3000 RMK AC2AC6CI2 SLP159 DENSITY ALT 700FT
10:00 下午
V
68 °F 15 mi 14.000 ft 150° 150° 10 kt METAR CYUL 010200Z 15010KT 15SM SCT090 BKN140 OVC250 20/13 A3001 RMK AC3AC5CI1 SLP165 DENSITY ALT 700FT
9:00 下午
V
70 °F 15 mi 13.000 ft 150° 150° 9 kt METAR CYUL 010100Z 15009KT 15SM SCT090 BKN130 OVC250 21/14 A3002 RMK AC3AC4CI1 PRESFR SLP167 DENSITY ALT 800FT
8:00 下午
V
70 °F 30 mi 24.000 ft 150° 150° 8 kt METAR CYUL 010000Z 15008KT 30SM FEW065 SCT090 BKN240 21/14 A3005 RMK SC2AC1CI4 SLP180 DENSITY ALT 800FT
7:00 下午
V
72 °F 15 mi 14.000 ft 160° 160° 9 kt METAR CYUL 302300Z 16009KT 15SM SCT095 BKN140 OVC250 22/11 A3006 RMK AC3AS3CI2 SLP181 DENSITY ALT 900FT
6:00 下午
V
73 °F 30 mi 13.000 ft 180° 180° 4 kt METAR CYUL 302200Z 18004KT 150V230 30SM FEW065 BKN130 OVC180 23/12 A3008 RMK CF1AC6AS2 CF TR SLP188 DENSITY ALT 900FT
5:00 下午
V
72 °F 15 mi 11.000 ft Var Var 2 kt METAR CYUL 302100Z VRB02KT 15SM FEW065 OVC110 22/12 A3010 RMK CF1AC8 CF TR SLP195 DENSITY ALT 800FT
4:00 下午
V
72 °F 30 mi 12.000 ft 240° 240° 8 kt METAR CYUL 302000Z 24008KT 190V250 30SM FEW065 OVC120 22/12 A3010 RMK CU1AC7 CF ASOCTD SLP195 DENSITY ALT 800FT
3:00 下午
V
73 °F 30 mi 19.000 ft 210° 210° 10 kt METAR CYUL 301900Z 21010KT 30SM SCT065 BKN190 23/11 A3010 RMK CU3AC4 SLP197 DENSITY ALT 900FT
2:00 下午
V
72 °F 30 mi 24.000 ft 220° 220° 10 kt METAR CYUL 301800Z 22010KT 30SM FEW065 BKN240 22/13 A3013 RMK CU2CI5 SLP204 DENSITY ALT 800FT
1:00 下午
V
70 °F 15 mi 24.000 ft 180° 180° 7 kt METAR CYUL 301700Z 18007KT 170V230 15SM SCT060 OVC240 21/14 A3016 RMK CU3CS5 SC ASOCTD SLP214 DENSITY ALT 600FT
12:00 下午
V
70 °F 15 mi 6.500 ft 180° 180° 4 kt METAR CYUL 301600Z 18004KT 160V250 15SM BKN065 OVC240 21/15 A3020 RMK SC7CI1 CU ASOCTD SLP229 DENSITY ALT 500FT
11:00 上午
V
68 °F 15 mi 6.500 ft 220° 220° 7 kt METAR CYUL 301500Z 22007KT 150V240 15SM BKN065 OVC240 20/14 A3022 RMK SC7CI1 CU ASOCTD SLP235 DENSITY ALT 400FT
较旧的数据

下载我们的应用程序

在您的手机和平板电脑上轻松访问所有航空天气。
有许多网站上没有的功能,如离线支持和个人机场列表。

Studio Eveline

Benalmádena
España

我们和第三方通过cookies跟踪您在我们网站上的上网行为。如果您继续,我们认为您同意我们的cookie政策。 了解更多